Minot Air Force Base, ND

1:40 AM CDT on September 29, 2016 (GMT -0500)
Minot Air Force Base

Weather History for KMIB - October, 2013

Change the Weather History Date:

Monday, October 7, 2013

  Actual Average Record
Temperature  
Mean Temperature 52 °F -  
Max Temperature 70 °F 58 °F 86 °F (2003)
Min Temperature 33 °F 34 °F 14 °F (2000)
Degree Days  
Heating Degree Days 14    
Growing Degree Days 2 (Base 50)    
Moisture  
Dew Point 37 °F    
Average Humidity 65    
Maximum Humidity 93    
Minimum Humidity 35    
Precipitation  
Precipitation 0.00 in - - ()
Sea Level Pressure  
Sea Level Pressure 29.84 in    
Wind  
Wind Speed 8 mph (SSW)    
Max Wind Speed 21 mph    
Max Gust Speed 30 mph    
Visibility 10 miles    
Events      
Averages and records for this station are not official NWS values.
T = Trace of Precipitation, MM = Missing Value Source: NWS Daily Summary

Daily Weather History Graph

Daily Weather History Graph

Search for Another Location

Airport or City:

Trip Planner

Search our weather history database for the weather conditions in past years. The results will help you decide how hot, cold, wet, or windy it might be!

Date:

Astronomy

Oct. 07, 2013 Rise Set
Actual Time 7:53 AM CDT 7:11 PM CDT
Civil Twilight 7:22 AM CDT 7:42 PM CDT
Nautical Twilight 6:46 AM CDT 8:18 PM CDT
Astronomical Twilight 6:09 AM CDT 8:55 PM CDT
Moon 11:01 AM CDT (10/7) 8:41 PM CDT (10/7)
Length of Visible Light 12h 20m
Length of Day
11h 17m
Waxing Crescent, 9% of the Moon is Illuminated
Oct 7
Waxing Crescent
Oct 11
First Quarter
Oct 18
Full
Oct 26
Last Quarter
Nov 3
New

Hourly Weather History & Observations

Time (CDT) Temp. Windchill Dew Point Humidity Pressure Visibility Wind Dir Wind Speed Gust Speed Precip Events Conditions
12:59 AM 47.5 °F - 39.0 °F 72% 29.96 in 10.0 mi NW 6.9 mph - N/A   Overcast
1:58 AM 46.4 °F 44.3 °F 39.0 °F 75% 29.96 in 10.0 mi WNW 4.6 mph - N/A   Overcast
2:58 AM 45.3 °F 43.0 °F 38.7 °F 78% 29.94 in 10.0 mi NW 4.6 mph - N/A   Overcast
3:58 AM 38.3 °F 33.9 °F 34.9 °F 87% 29.96 in 10.0 mi West 5.8 mph - N/A   Scattered Clouds
4:58 AM 37.6 °F 35.1 °F 34.5 °F 89% 29.96 in 10.0 mi West 3.5 mph - N/A   Partly Cloudy
5:38 AM 35.6 °F 30.7 °F 32.0 °F 87% 29.92 in 8.0 mi West 5.8 mph - N/A   Clear
5:53 AM 35.6 °F 31.7 °F 32.0 °F 87% 29.92 in 10.0 mi West 4.6 mph - N/A   Clear
5:58 AM 34.7 °F 29.6 °F 32.4 °F 91% 29.95 in 10.0 mi West 5.8 mph - N/A   Clear
6:58 AM 34.9 °F 32.0 °F 32.5 °F 91% 29.96 in 10.0 mi West 3.5 mph - N/A   Clear
7:08 AM 33.8 °F 30.8 °F 32.0 °F 93% 29.92 in 9.0 mi West 3.5 mph - N/A   Clear
7:13 AM 35.6 °F 32.8 °F 32.0 °F 87% 29.92 in 10.0 mi West 3.5 mph - N/A   Clear
7:58 AM 35.8 °F - 32.9 °F 89% 29.96 in 10.0 mi Calm Calm - N/A   Clear
8:58 AM 38.7 °F - 35.6 °F 89% 29.96 in 5.0 mi SE 2.3 mph - N/A   Clear
9:58 AM 46.0 °F 43.9 °F 39.0 °F 76% 29.94 in 10.0 mi SSE 4.6 mph - N/A   Clear
10:58 AM 54.3 °F - 37.6 °F 53% 29.93 in 10.0 mi SSE 9.2 mph - N/A   Clear
11:58 AM 60.3 °F - 39.2 °F 46% 29.90 in 10.0 mi South 11.5 mph - N/A   Clear
12:58 PM 65.1 °F - 38.7 °F 38% 29.85 in 10.0 mi South 15.0 mph - N/A   Clear
1:58 PM 67.5 °F - 39.6 °F 36% 29.81 in 10.0 mi South 18.4 mph 25.3 mph N/A   Clear
2:58 PM 68.9 °F - 40.5 °F 35% 29.77 in 10.0 mi SSE 18.4 mph - N/A   Clear
3:58 PM 70.0 °F - 41.7 °F 36% 29.75 in 10.0 mi South 16.1 mph - N/A   Clear
4:58 PM 70.2 °F - 42.1 °F 36% 29.73 in 10.0 mi South 16.1 mph 25.3 mph N/A   Clear
5:58 PM 68.4 °F - 42.1 °F 38% 29.70 in 10.0 mi South 15.0 mph - N/A   Clear
6:58 PM 63.7 °F - 41.5 °F 44% 29.68 in 10.0 mi South 13.8 mph - N/A   Clear
7:58 PM 60.1 °F - 40.6 °F 49% 29.67 in 10.0 mi South 15.0 mph - N/A   Clear
8:58 PM 59.4 °F - 39.6 °F 48% 29.65 in 10.0 mi SSW 20.7 mph 29.9 mph N/A   Clear
9:58 PM 57.2 °F - 39.0 °F 51% 29.64 in 10.0 mi SSW 19.6 mph 24.2 mph N/A   Clear
10:58 PM 57.2 °F - 39.2 °F 51% 29.63 in 10.0 mi SSW 18.4 mph 29.9 mph N/A   Clear
11:58 PM 55.0 °F - 39.2 °F 55% 29.62 in 10.0 mi SSW 11.5 mph - N/A   Clear